STARLINK-35387

Last updated on Mon Oct 20 2025 00:02:08 GMT+0000 (Coordinated Universal Time)

1 65909U 25224AD 25292.25002315 -.01481023 00000+0 -66782-2 0 9993 2 65909 53.1503 313.2838 0001222 85.1950 138.3289 15.85885722 3100
UTC large
Height (km)
Speed (km/s)
/
Latitude / Longitude
Inclination (degrees)
Orbital Period (minutes)
Azimuth
Elevation
Range (km)
Doppler Factor

Next 0 passes for location: London (51.5072 / 0.1276)

Sorry there are no passes over London.